Calgary Springbank, Alberta

6:44 AM MDT on March 24, 2017 (GMT -0600)
Springbank

Weather History for CYBW - January, 2013

Change the Weather History Date:

Friday, January 25, 2013

  Actual Average Record
Temperature  
Mean Temperature 29 °F -  
Max Temperature 43 °F 28 °F 59 °F (2015)
Min Temperature 15 °F 8 °F -43 °F (1997)
Degree Days  
Heating Degree Days 36    
Moisture  
Dew Point 16 °F    
Average Humidity 58    
Maximum Humidity 73    
Minimum Humidity 39    
Precipitation  
Precipitation 0.00 in - - ()
Sea Level Pressure  
Sea Level Pressure 29.92 in    
Wind  
Wind Speed 7 mph ()    
Max Wind Speed 18 mph    
Max Gust Speed 25 mph    
Visibility 15.8 miles    
Events      
Averages and records for this station are not official NWS values.
T = Trace of Precipitation, MM = Missing Value Source: Averaged Metar Reports

Daily Weather History Graph

Daily Weather History Graph

Search for Another Location

Airport or City:

Trip Planner

Search our weather history database for the weather conditions in past years. The results will help you decide how hot, cold, wet, or windy it might be!

Date:

Astronomy

Jan. 25, 2013 Rise Set
Actual Time 8:23 AM MST 5:16 PM MST
Civil Twilight 7:46 AM MST 5:53 PM MST
Nautical Twilight 7:06 AM MST 6:33 PM MST
Astronomical Twilight 6:27 AM MST 7:12 PM MST
Moon 4:18 PM MST (1/25) 7:06 AM MST (1/25)
Length of Visible Light 10h 06m
Length of Day
8h 53m
Waxing Gibbous, 98% of the Moon is Illuminated
Jan 25
Waxing Gibbous
Jan 26
Full
Feb 3
Last Quarter
Feb 10
New
Feb 17
First Quarter

Hourly Weather History & Observations

Time (MST) Temp. Windchill Dew Point Humidity Pressure Visibility Wind Dir Wind Speed Gust Speed Precip Events Conditions
5:00 AM 20 °F - 9 °F 48% 29.94 in 15 mi West 5.8 mph - -   Partly Cloudy
5:00 AM 19.4 °F 10.4 °F 8.6 °F 63% 29.94 in 15.0 mi West 6.9 mph - N/A   Mostly Cloudy
6:00 AM 26.6 °F 20.0 °F 12.2 °F 55% 29.91 in 15.0 mi WNW 5.8 mph - N/A   Mostly Cloudy
7:00 AM 21.2 °F 12.6 °F 10.4 °F 63% 29.95 in 15.0 mi WSW 6.9 mph - N/A   Scattered Clouds
8:00 AM 15.8 °F 10.2 °F 6.8 °F 68% 29.96 in 20.0 mi WNW 3.5 mph - N/A   Scattered Clouds
9:00 AM 17.6 °F 8.2 °F 10.4 °F 73% 29.96 in 30.0 mi SSW 6.9 mph - N/A   Scattered Clouds
10:00 AM 32.0 °F - 15.8 °F 51% 29.92 in 30.0 mi Calm Calm - N/A   Scattered Clouds
11:00 AM 29 °F - 17 °F 47% 29.94 in 28 mi South 2.3 mph - -   Scattered Clouds
11:00 AM 30.2 °F 26.7 °F 15.8 °F 55% 29.94 in 30.0 mi South 3.5 mph - N/A   Scattered Clouds
12:00 PM 33.8 °F 30.8 °F 17.6 °F 52% 29.91 in 30.0 mi South 3.5 mph - N/A   Partly Cloudy
1:00 PM 42.8 °F 34.5 °F 19.4 °F 39% 29.88 in 30.0 mi West 18.4 mph - N/A   Scattered Clouds
2:00 PM 42.8 °F 34.8 °F 21.2 °F 42% 29.88 in 30.0 mi West 17.3 mph 25.3 mph N/A   Scattered Clouds
3:00 PM 41.0 °F 33.5 °F 23.0 °F 49% 29.87 in 30.0 mi West 13.8 mph 21.9 mph N/A   Scattered Clouds
4:00 PM 37.4 °F 29.3 °F 23.0 °F 56% 29.91 in 30.0 mi West 12.7 mph - N/A   Scattered Clouds
4:16 PM 35.6 °F 26.6 °F 23.0 °F 60% 29.90 in 30.0 mi West 13.8 mph - N/A   Scattered Clouds
5:00 PM 31 °F - 21 °F 54% 29.94 in 28 mi West 9.2 mph - -   Scattered Clouds
5:00 PM 30.2 °F 25.4 °F 21.2 °F 69% 29.94 in 30.0 mi WNW 4.6 mph - N/A   Mostly Cloudy
6:00 PM 26.6 °F 14.7 °F 17.6 °F 69% 29.93 in 20.0 mi West 15.0 mph - N/A   Scattered Clouds
7:00 PM 26.6 °F 15.2 °F 17.6 °F 69% 29.94 in 15.0 mi West 13.8 mph - N/A   Partly Cloudy
7:08 PM 26.6 °F 15.7 °F 17.6 °F 69% 29.94 in 15.0 mi NW 12.7 mph - N/A   Partly Cloudy
8:00 PM 26.6 °F 16.8 °F 15.8 °F 64% 29.95 in 15.0 mi West 10.4 mph - N/A   Partly Cloudy
8:33 PM 23.0 °F 10.1 °F 14.0 °F 68% 29.96 in 15.0 mi West 15.0 mph - N/A   Partly Cloudy
9:00 PM 23.0 °F 13.9 °F 14.0 °F 68% 29.96 in 15.0 mi NW 8.1 mph - N/A   Partly Cloudy
10:00 PM 28.4 °F 18.5 °F 12.2 °F 51% 29.77 in 15.0 mi NW 11.5 mph - N/A   Partly Cloudy